This is the latest recevied weather packets stored in our database for station/object XE2KK-10. If no packets are shown the sender has not sent any weather packets the latest 10 day(s).
| Time | Temp. | Humidity | Pressure | Rain* | Wind** | Luminosity | Snow |
|---|---|---|---|---|---|---|---|
| 1777778953 | 18.89° C | 60% | 1021.1 hPa | 0 mm | - | 0 W/m² | - |
| 1777778653 | 18.89° C | 61% | 1021.1 hPa | 0 mm | - | 0 W/m² | - |
| 1777778352 | 18.89° C | 61% | 1021.4 hPa | 0 mm | - | 0 W/m² | - |
| 1777778052 | 18.89° C | 60% | 1021.1 hPa | 0 mm | - | 0 W/m² | - |
| 1777777753 | 18.89° C | 60% | 1021 hPa | 0 mm | - | 0 W/m² | - |
| 1777777453 | 18.89° C | 60% | 1021 hPa | 0 mm | - | 0 W/m² | - |
| 1777777153 | 18.89° C | 59% | 1021 hPa | 0 mm | - | 0 W/m² | - |
| 1777776853 | 18.89° C | 59% | 1021 hPa | 0 mm | - | 0 W/m² | - |
| 1777776552 | 19.44° C | 58% | 1020.6 hPa | 0 mm | - | 0 W/m² | - |
| 1777776252 | 19.44° C | 58% | 1020.6 hPa | 0 mm | - | 0 W/m² | - |
| 1777775953 | 19.44° C | 57% | 1020.5 hPa | 0 mm | - | 0 W/m² | - |
| 1777775653 | 19.44° C | 57% | 1020.5 hPa | 0 mm | - | 0 W/m² | - |
| 1777775353 | 19.44° C | 57% | 1020.6 hPa | 0 mm | - | 0 W/m² | - |
| 1777775053 | 19.44° C | 56% | 1020.7 hPa | 0 mm | - | 0 W/m² | - |
| 1777774452 | 19.44° C | 56% | 1020.8 hPa | 0 mm | - | 0 W/m² | - |
| 1777774153 | 20° C | 56% | 1020.6 hPa | 0 mm | - | 0 W/m² | - |
| 1777772053 | 20° C | 56% | 1020.2 hPa | 0 mm | - | 0 W/m² | - |
| 1777771453 | 20° C | 56% | 1020.3 hPa | 0 mm | - | 0 W/m² | - |
| 1777770253 | 20° C | 55% | 1019.9 hPa | 0 mm | - | 12 W/m² | - |
| 1777769953 | 20° C | 55% | 1019.9 hPa | 0 mm | - | 17 W/m² | - |
| 1777769653 | 20° C | 55% | 1019.7 hPa | 0 mm | - | 22 W/m² | - |
| 1777767552 | 20.56° C | 54% | 1019.7 hPa | 0 mm | - | 71 W/m² | - |
| 1777766953 | 20.56° C | 54% | 1019.9 hPa | 0 mm | - | 67 W/m² | - |
| 1777763952 | 21.11° C | 53% | 1019.9 hPa | 0 mm | - | 189 W/m² | - |
| 1777761852 | 21.11° C | 56% | 1019.9 hPa | 0 mm | - | 178 W/m² | - |
* Rain latest hour (hover to see other rain measurements)
** Current wind speed in m/s (hover to see current wind gust speed)